This is the latest recevied weather packets stored in our database for station/object OK1FET-14. If no packets are shown the sender has not sent any weather packets the latest 10 day(s).
| Time | Temp. | Humidity | Pressure | Rain* | Wind** | Luminosity | Snow |
|---|---|---|---|---|---|---|---|
| 1788020014 | 21.11° C | 47% | 1017.3 hPa | - | - | - | - |
| 1788019733 | 23.33° C | 43% | 1017.4 hPa | - | - | - | - |
| 1788019733 | 23.33° C | 43% | 1017.4 hPa | - | - | - | - |
| 1788019452 | 23.89° C | 42% | 1017.4 hPa | - | - | - | - |
| 1788019452 | 23.89° C | 42% | 1017.4 hPa | - | - | - | - |
| 1788019170 | 24.44° C | 42% | 1017.4 hPa | - | - | - | - |
| 1788019170 | 24.44° C | 42% | 1017.4 hPa | - | - | - | - |
| 1788018889 | 23.33° C | 43% | 1017.4 hPa | - | - | - | - |
| 1788018889 | 23.33° C | 43% | 1017.4 hPa | - | - | - | - |
| 1788018889 | 23.33° C | 43% | 1017.4 hPa | - | - | - | - |
| 1788018608 | 21.11° C | 48% | 1017.4 hPa | - | - | - | - |
| 1788018608 | 21.11° C | 48% | 1017.4 hPa | - | - | - | - |
| 1788018608 | 21.11° C | 48% | 1017.4 hPa | - | - | - | - |
| 1788018327 | 21.67° C | 47% | 1017.4 hPa | - | - | - | - |
| 1788018327 | 21.67° C | 47% | 1017.4 hPa | - | - | - | - |
| 1788018046 | 23.33° C | 43% | 1017.4 hPa | - | - | - | - |
| 1788018046 | 23.33° C | 43% | 1017.4 hPa | - | - | - | - |
| 1788017765 | 22.22° C | 46% | 1017.5 hPa | - | - | - | - |
| 1788017765 | 22.22° C | 46% | 1017.5 hPa | - | - | - | - |
| 1788017484 | 21.11° C | 48% | 1017.5 hPa | - | - | - | - |
| 1788017203 | 23.33° C | 42% | 1017.5 hPa | - | - | - | - |
| 1788017203 | 23.33° C | 42% | 1017.5 hPa | - | - | - | - |
| 1788016922 | 23.33° C | 44% | 1017.4 hPa | - | - | - | - |
| 1788016922 | 23.33° C | 44% | 1017.4 hPa | - | - | - | - |
| 1788016641 | 23.33° C | 44% | 1017.5 hPa | - | - | - | - |
* Rain since midnight (hover to see other rain measurements)
** Current wind speed in m/s (hover to see current wind gust speed)